カタログに戻る

CZ-4C DEB

運用中LEO
NORAD 38305·DEBRIS·🇨🇳 China

打ち上げ Mar 5, 2010 から Jiuquan Satellite Launch Center

Loading…

次のパス (今後24時間)

TLE

最新Source: Space-Track

元期: Sep 14, 2026, 13:19 UTC

1 38305U 10009J   26257.55539786 -.00000021  00000-0  15709-3 0  9998
2 38305  63.4879 314.5922 0298589 352.1350   7.5026 13.00375617619429

AllMySatでCZ-4C DEBをリアルタイム追跡

Download on the App Store